"startDT [UTC]","vpos","CH4 [ppm]","stdev(CH4) [ppm]","CO2 [ppm]","stdev(CO2) [ppm]","H2O_reported [%]","stdev(H2O_reported)","CavityPressure [torr]","CavityTemp [C]","OutletValve","CH4_dry [ppm]","CO2_dry [ppm]","DasTemp [C]","EtalonTemp [C]","WarmBoxTemp [C]","MPVPosition","T_ECpre [C]","T_EC1 [C]","T_EC2 [C]","p_inlet [hPa]","p_in [hPa]","p_out [hPa]","T_inlet [C]","RH_inlet [%]","dwpt_inlet [C]","T_vent [C]","RH_vent [%]","dwpt_vent [C]","flow_vent [l min-1]","flow_inlet [l min-1]","dwpt_sample [C]","T_room [C]"
2013-10-29 00:00:00,0.0,1.91248,0.00017,398.419,0.042,0.2052,0.0017,140.003,45.000,31410.07896,1.91634,399.405,30.438,45.059,45.000,0.00,0.11,-272.58,-272.65,-14,562,3,16.6,8.1,-17.7,16.7,8.4,-17.2,5.73,2.49,-11.1,23.2
2013-10-29 00:01:00,0.0,1.91170,0.00032,398.424,0.046,0.2070,0.0017,140.000,45.000,31409.21357,1.91576,399.430,30.438,45.059,45.000,0.00,0.11,-272.58,-272.64,-14,563,3,16.6,8.1,-17.6,16.7,8.4,-17.1,5.73,2.59,-11.1,23.3
2013-10-29 00:02:00,0.0,1.91171,0.00037,398.401,0.025,0.2066,0.0021,140.007,45.000,31411.62618,1.91556,399.391,30.438,45.059,45.000,0.00,0.11,-272.58,-272.64,-13,563,3,16.6,8.1,-17.6,16.7,8.4,-17.1,5.73,2.59,-11.1,23.3
2013-10-29 00:03:00,0.0,1.91157,0.00024,398.412,0.037,0.2069,0.0022,139.997,45.000,31407.95220,1.91551,399.415,30.438,45.058,45.000,0.00,0.11,-272.58,-272.65,-14,563,2,16.6,8.1,-17.6,16.7,8.4,-17.1,5.73,2.49,-11.1,23.3
2013-10-29 00:04:00,0.0,1.91168,0.00034,398.385,0.017,0.2072,0.0014,140.001,45.000,31410.29409,1.91565,399.382,30.438,45.059,45.000,0.00,0.11,-272.58,-272.64,-14,563,3,16.6,8.2,-17.6,16.7,8.5,-17.1,5.73,2.63,-11.1,23.3
2013-10-29 00:05:00,0.0,1.91206,0.00038,398.354,0.021,0.2064,0.0014,140.002,45.000,31408.40229,1.91584,399.347,30.438,45.059,45.000,0.00,0.11,-272.58,-272.64,-13,563,3,16.6,8.2,-17.6,16.7,8.5,-17.1,5.73,2.53,-11.1,23.3
2013-10-29 00:06:00,0.0,1.91206,0.00029,398.387,0.020,0.2050,0.0012,139.996,45.000,31405.98196,1.91595,399.374,30.438,45.059,45.000,0.00,0.11,-272.58,-272.64,-13,562,3,16.6,8.2,-17.6,16.7,8.5,-17.1,5.73,2.53,-11.1,23.3
2013-10-29 00:07:00,0.0,1.91224,0.00055,398.416,0.038,0.2076,0.0013,140.000,45.000,31406.67649,1.91627,399.414,30.440,45.059,45.000,0.00,0.11,-272.58,-272.64,-14,563,3,16.6,8.1,-17.6,16.7,8.4,-17.1,5.73,2.62,-11.1,23.3
2013-10-29 00:08:00,0.0,1.91157,0.00035,398.381,0.050,0.2069,0.0006,140.004,45.000,31407.05932,1.91553,399.385,30.445,45.059,45.000,0.00,0.11,-272.58,-272.64,-13,563,3,16.5,8.1,-17.6,16.7,8.5,-17.1,5.73,2.49,-11.1,23.3
2013-10-29 00:09:00,0.0,1.91148,0.00019,398.398,0.070,0.2055,0.0013,140.009,45.000,31408.34146,1.91530,399.372,30.448,45.059,45.000,0.00,0.11,-272.58,-272.64,-13,562,3,16.5,8.2,-17.6,16.7,8.5,-17.1,5.73,2.60,-11.1,23.3
2013-10-29 00:10:00,0.0,1.91150,0.00040,398.386,0.015,0.2069,0.0016,140.005,45.000,31409.10032,1.91546,399.388,30.438,45.059,45.000,0.00,0.11,-272.58,-272.64,-14,563,3,16.5,8.2,-17.6,16.7,8.5,-17.0,5.73,2.57,-11.1,23.3
2013-10-29 00:11:00,0.0,1.91173,0.00039,398.419,0.046,0.2070,0.0019,140.000,45.000,31407.91019,1.91560,399.416,30.438,45.059,45.000,0.00,0.11,-272.58,-272.64,-13,563,3,16.5,8.2,-17.6,16.7,8.5,-17.1,5.73,2.50,-11.1,23.3
2013-10-29 00:12:00,0.0,1.91186,0.00048,398.411,0.043,0.2079,0.0011,140.001,45.000,31407.40570,1.91578,399.413,30.439,45.059,45.000,0.00,0.11,-272.58,-272.64,-13,562,3,16.5,8.2,-17.6,16.7,8.5,-17.1,5.73,2.63,-11.1,23.3
2013-10-29 00:13:00,0.0,1.91142,0.00046,398.382,0.031,0.2069,0.0008,140.000,45.000,31408.01081,1.91529,399.380,30.442,45.059,45.000,0.00,0.11,-272.58,-272.64,-14,562,3,16.6,8.2,-17.6,16.7,8.5,-17.0,5.73,2.51,-11.1,23.3
2013-10-29 00:14:00,0.0,1.91168,0.00041,398.431,0.040,0.2081,0.0016,140.006,45.000,31408.73001,1.91564,399.430,30.443,45.059,45.000,0.00,0.11,-272.58,-272.64,-13,563,3,16.6,8.2,-17.6,16.7,8.5,-17.0,5.73,2.55,-11.1,23.3
2013-10-29 00:15:00,0.0,1.91192,0.00025,398.415,0.034,0.2066,0.0011,140.001,45.000,31406.70394,1.91577,399.413,30.447,45.059,45.000,0.00,0.11,-272.58,-272.64,-13,562,3,16.6,8.2,-17.6,16.7,8.5,-17.0,5.73,2.61,-11.1,23.3
2013-10-29 00:16:00,0.0,1.91198,0.00037,398.387,0.012,0.2096,0.0019,140.000,45.000,31406.85795,1.91594,399.394,30.439,45.059,45.000,0.00,0.11,-272.58,-272.65,-14,562,3,16.6,8.2,-17.5,16.7,8.5,-17.0,5.73,2.48,-11.1,23.3
2013-10-29 00:17:00,0.0,1.91232,0.00025,398.431,0.028,0.2077,0.0020,139.996,45.000,31405.52762,1.91626,399.428,30.438,45.059,45.000,0.00,0.11,-272.58,-272.64,-13,563,3,16.6,8.2,-17.5,16.7,8.5,-17.0,5.73,2.61,-11.1,23.3
2013-10-29 00:18:00,0.0,1.91224,0.00037,398.380,0.018,0.2093,0.0019,140.002,45.000,31407.08814,1.91626,399.388,30.438,45.059,45.000,0.00,0.11,-272.58,-272.64,-13,562,3,16.6,8.2,-17.5,16.7,8.5,-17.0,5.73,2.56,-11.1,23.3
2013-10-29 00:19:00,0.0,1.91236,0.00033,398.404,0.020,0.2087,0.0022,139.997,45.000,31406.06342,1.91619,399.412,30.444,45.059,45.000,0.00,0.11,-272.58,-272.64,-14,562,3,16.6,8.2,-17.5,16.7,8.5,-17.0,5.73,2.50,-11.1,23.3
2013-10-29 00:20:00,0.0,1.91198,0.00067,398.355,0.031,0.2075,0.0009,140.001,45.000,31408.21436,1.91590,399.354,30.443,45.059,45.000,0.00,0.11,-272.59,-272.64,-14,563,3,16.6,8.2,-17.5,16.7,8.5,-17.0,5.73,2.63,-11.1,23.3
2013-10-29 00:21:00,0.0,1.91236,0.00037,398.407,0.027,0.2097,0.0023,139.999,45.000,31409.30062,1.91635,399.410,30.440,45.059,45.000,0.00,0.11,-272.58,-272.64,-13,563,3,16.6,8.2,-17.5,16.7,8.5,-17.0,5.73,2.51,-11.1,23.3
2013-10-29 00:22:00,0.0,1.91271,0.00040,398.398,0.041,0.2105,0.0008,140.002,45.000,31409.30654,1.91667,399.413,30.451,45.059,45.000,0.00,0.11,-272.58,-272.64,-14,562,3,16.6,8.2,-17.5,16.7,8.5,-17.0,5.73,2.56,-11.1,23.3
2013-10-29 00:23:00,0.0,1.91306,0.00025,398.411,0.029,0.2096,0.0009,139.996,45.000,31405.33582,1.91691,399.420,30.452,45.059,45.000,0.00,0.11,-272.59,-272.65,-14,563,2,16.6,8.2,-17.5,16.7,8.5,-17.0,5.73,2.60,-11.1,23.3
2013-10-29 00:24:00,0.0,1.91297,0.00039,398.434,0.020,0.2102,0.0011,140.001,45.000,31406.45018,1.91690,399.446,30.479,45.058,45.000,0.00,0.11,-272.58,-272.64,-13,563,3,16.6,8.3,-17.5,16.7,8.6,-16.9,5.73,2.49,-11.1,23.3
2013-10-29 00:25:00,0.0,1.91280,0.00043,398.412,0.014,0.2088,0.0010,140.003,45.000,31406.18181,1.91689,399.418,30.472,45.058,45.000,0.00,0.11,-272.58,-272.64,-14,562,3,16.6,8.2,-17.5,16.7,8.6,-16.9,5.73,2.62,-11.1,23.3
2013-10-29 00:26:00,0.0,1.91251,0.00056,398.427,0.022,0.2088,0.0012,140.005,45.000,31408.33761,1.91636,399.430,30.498,45.058,45.000,0.00,0.11,-272.58,-272.64,-14,563,3,16.6,8.2,-17.5,16.7,8.5,-17.0,5.73,2.54,-11.1,23.3
2013-10-29 00:27:00,0.0,1.91254,0.00019,398.429,0.046,0.2089,0.0010,140.003,45.000,31407.42569,1.91655,399.431,30.498,45.058,45.000,0.00,0.11,-272.58,-272.64,-13,563,3,16.6,8.2,-17.5,16.7,8.5,-17.0,5.73,2.52,-11.1,23.3
2013-10-29 00:28:00,0.0,1.91246,0.00025,398.463,0.020,0.2091,0.0007,140.005,45.000,31406.64211,1.91646,399.477,30.495,45.058,45.000,0.00,0.11,-272.58,-272.64,-14,562,3,16.6,8.2,-17.5,16.7,8.5,-17.0,5.73,2.63,-11.1,23.3
2013-10-29 00:29:00,0.0,1.91243,0.00030,398.427,0.024,0.2078,0.0026,139.998,45.000,31406.61286,1.91636,399.426,30.500,45.059,45.000,0.00,0.11,-272.58,-272.65,-14,563,3,16.6,8.2,-17.6,16.7,8.5,-17.0,5.73,2.49,-11.1,23.3
2013-10-29 00:30:00,0.0,1.91303,0.00040,398.446,0.031,0.2076,0.0017,140.000,45.000,31405.77411,1.91676,399.443,30.485,45.059,45.000,0.00,0.11,-272.58,-272.65,-13,563,3,16.6,8.2,-17.5,16.7,8.5,-17.0,5.73,2.58,-11.1,23.3
2013-10-29 00:31:00,0.0,1.91333,0.00048,398.440,0.041,0.2094,0.0005,140.002,45.000,31408.04203,1.91729,399.454,30.483,45.059,45.000,0.00,0.11,-272.58,-272.64,-14,562,3,16.6,8.2,-17.5,16.7,8.5,-16.9,5.73,2.59,-11.1,23.3
2013-10-29 00:32:00,0.0,1.91350,0.00034,398.417,0.016,0.2095,0.0027,140.000,45.000,31404.83718,1.91749,399.427,30.476,45.059,45.000,0.00,0.11,-272.58,-272.64,-14,563,3,16.6,8.3,-17.5,16.7,8.6,-16.9,5.73,2.49,-11.1,23.3
2013-10-29 00:33:00,0.0,1.91428,0.00037,398.391,0.038,0.2101,0.0013,139.999,45.000,31401.78074,1.91810,399.404,30.460,45.059,45.000,0.00,0.11,-272.59,-272.64,-13,563,3,16.6,8.3,-17.4,16.7,8.6,-16.9,5.73,2.62,-11.1,23.3
2013-10-29 00:34:00,0.0,1.91422,0.00029,398.419,0.044,0.2112,0.0013,140.001,45.000,31403.08358,1.91826,399.431,30.486,45.059,45.000,0.00,0.11,-272.58,-272.64,-13,562,2,16.6,8.3,-17.4,16.7,8.6,-16.8,5.73,2.53,-11.1,23.3
2013-10-29 00:35:00,0.0,1.91497,0.00060,398.418,0.007,0.2121,0.0013,140.005,45.000,31401.78288,1.91898,399.442,30.485,45.059,45.000,0.00,0.11,-272.58,-272.64,-14,563,3,16.6,8.3,-17.3,16.7,8.7,-16.8,5.73,2.53,-11.1,23.3
2013-10-29 00:36:00,0.0,1.91455,0.00028,398.442,0.021,0.2125,0.0018,140.000,45.000,31401.71354,1.91851,399.460,30.493,45.059,45.000,0.00,0.11,-272.58,-272.64,-13,563,3,16.6,8.3,-17.3,16.7,8.6,-16.8,5.73,2.62,-11.1,23.3
2013-10-29 00:37:00,0.0,1.91455,0.00041,398.436,0.025,0.2126,0.0021,140.004,45.000,31403.40235,1.91864,399.465,30.488,45.059,45.000,0.00,0.11,-272.58,-272.64,-13,562,3,16.6,8.3,-17.3,16.7,8.7,-16.8,5.73,2.49,-11.1,23.3
2013-10-29 00:38:00,0.0,1.91406,0.00040,398.432,0.033,0.2118,0.0019,140.003,45.000,31403.41666,1.91810,399.453,30.490,45.059,45.000,0.00,0.11,-272.58,-272.64,-14,563,2,16.6,8.3,-17.3,16.8,8.7,-16.8,5.73,2.59,-11.1,23.3
2013-10-29 00:39:00,0.0,1.91380,0.00034,398.424,0.029,0.2117,0.0011,140.004,45.000,31403.96204,1.91782,399.437,30.481,45.059,45.000,0.00,0.11,-272.58,-272.64,-13,563,2,16.6,8.4,-17.3,16.8,8.7,-16.8,5.73,2.58,-11.1,23.3
2013-10-29 00:40:00,0.0,1.91391,0.00022,398.387,0.033,0.2120,0.0015,140.007,45.000,31406.35575,1.91790,399.412,30.496,45.059,45.000,0.00,0.11,-272.58,-272.65,-13,563,3,16.7,8.4,-17.2,16.8,8.7,-16.7,5.73,2.49,-11.1,23.3
2013-10-29 00:41:00,0.0,1.91376,0.00032,398.390,0.009,0.2138,0.0021,140.010,45.000,31408.02372,1.91783,399.421,30.500,45.059,45.000,0.00,0.11,-272.58,-272.64,-14,563,2,16.6,8.4,-17.2,16.8,8.7,-16.7,5.73,2.62,-11.1,23.3
2013-10-29 00:42:00,0.0,1.91354,0.00020,398.391,0.025,0.2132,0.0014,139.999,45.000,31404.34802,1.91764,399.419,30.500,45.059,45.000,0.00,0.11,-272.58,-272.64,-14,563,2,16.6,8.4,-17.2,16.8,8.7,-16.7,5.73,2.54,-11.1,23.3
2013-10-29 00:43:00,0.0,1.91340,0.00059,398.346,0.034,0.2151,0.0016,140.003,45.000,31406.82494,1.91753,399.385,30.500,45.058,45.000,0.00,0.11,-272.58,-272.65,-13,563,2,16.6,8.4,-17.2,16.8,8.7,-16.6,5.73,2.51,-11.1,23.3
2013-10-29 00:44:00,0.0,1.91280,0.00016,398.331,0.037,0.2141,0.0015,140.000,45.000,31407.22023,1.91687,399.361,30.500,45.059,45.000,0.00,0.11,-272.58,-272.64,-14,563,2,16.6,8.4,-17.1,16.8,8.8,-16.6,5.73,2.63,-11.1,23.3
2013-10-29 00:45:00,0.0,1.91306,0.00021,398.319,0.028,0.2149,0.0013,140.003,45.000,31407.63245,1.91705,399.352,30.490,45.059,45.000,0.00,0.11,-272.57,-272.64,-14,563,2,16.6,8.4,-17.2,16.8,8.8,-16.6,5.73,2.50,-11.1,23.3
2013-10-29 00:46:00,0.0,1.91315,0.00030,398.336,0.019,0.2145,0.0006,140.006,45.000,31406.13241,1.91727,399.369,30.488,45.059,45.000,0.00,0.11,-272.58,-272.64,-13,563,2,16.6,8.4,-17.2,16.8,8.8,-16.6,5.73,2.56,-11.1,23.3
2013-10-29 00:47:00,0.0,1.91263,0.00029,398.306,0.012,0.2157,0.0013,140.003,45.000,31406.96176,1.91671,399.345,30.472,45.059,45.000,0.00,0.11,-272.58,-272.64,-14,563,2,16.6,8.5,-17.2,16.7,8.8,-16.6,5.73,2.61,-11.1,23.3
2013-10-29 00:48:00,0.0,1.91336,0.00046,398.332,0.029,0.2165,0.0018,140.001,45.000,31405.83614,1.91737,399.377,30.456,45.059,45.001,0.00,0.11,-272.57,-272.64,-14,563,2,16.6,8.5,-17.1,16.7,8.8,-16.6,5.73,2.49,-11.1,23.3
2013-10-29 00:49:00,0.0,1.91341,0.00015,398.315,0.024,0.2157,0.0011,140.001,45.000,31404.85398,1.91750,399.351,30.444,45.059,45.000,0.00,0.11,-272.58,-272.64,-13,563,2,16.6,8.5,-17.1,16.7,8.8,-16.6,5.73,2.59,-11.1,23.3
2013-10-29 00:50:00,0.0,1.91333,0.00025,398.327,0.040,0.2169,0.0011,140.003,45.000,31405.42226,1.91748,399.371,30.447,45.059,45.001,0.00,0.11,-272.58,-272.65,-13,562,2,16.6,8.5,-17.1,16.7,8.8,-16.6,5.73,2.58,-11.1,23.3
2013-10-29 00:51:00,0.0,1.91338,0.00033,398.358,0.029,0.2164,0.0013,140.003,45.000,31405.93446,1.91736,399.399,30.451,45.059,45.000,0.00,0.11,-272.58,-272.64,-14,563,3,16.6,8.5,-17.1,16.7,8.8,-16.6,5.73,2.49,-11.1,23.3
2013-10-29 00:52:00,0.0,1.91397,0.00029,398.380,0.018,0.2155,0.0011,139.998,45.000,31403.61606,1.91800,399.417,30.451,45.059,45.000,0.00,0.11,-272.58,-272.64,-14,563,2,16.6,8.5,-17.1,16.7,8.8,-16.6,5.73,2.62,-11.1,23.3
2013-10-29 00:53:00,0.0,1.91458,0.00051,398.359,0.041,0.2167,0.0016,139.998,45.000,31402.84497,1.91866,399.396,30.450,45.059,45.000,0.00,0.11,-272.58,-272.64,-13,562,2,16.6,8.5,-17.1,16.7,8.8,-16.6,5.73,2.55,-11.1,23.3
2013-10-29 00:54:00,0.0,1.91452,0.00034,398.342,0.028,0.2165,0.0010,140.006,45.000,31404.30705,1.91858,399.389,30.466,45.059,45.000,0.00,0.11,-272.58,-272.64,-14,562,2,16.6,8.5,-17.1,16.7,8.8,-16.6,5.73,2.51,-11.1,23.3
2013-10-29 00:55:00,0.0,1.91515,0.00057,398.366,0.025,0.2164,0.0008,140.004,45.000,31406.11471,1.91925,399.407,30.467,45.059,45.000,0.00,0.11,-272.58,-272.64,-14,563,2,16.6,8.5,-17.1,16.7,8.8,-16.6,5.73,2.63,-11.0,23.3
2013-10-29 00:56:00,0.0,1.91475,0.00080,398.349,0.006,0.2160,0.0016,140.002,45.000,31407.45554,1.91866,399.391,30.494,45.059,45.000,0.00,0.11,-272.58,-272.64,-13,563,2,16.6,8.5,-17.1,16.8,8.8,-16.6,5.73,2.52,-11.0,23.3
2013-10-29 00:57:00,0.0,1.91584,0.00056,398.401,0.026,0.2153,0.0010,140.002,45.000,31407.12929,1.92001,399.433,30.494,45.059,45.000,0.00,0.11,-272.58,-272.65,-14,562,2,16.6,8.5,-17.0,16.8,8.8,-16.6,5.73,2.54,-11.1,23.3
2013-10-29 00:58:00,0.0,1.91467,0.00059,398.334,0.045,0.2164,0.0014,140.004,45.000,31409.23347,1.91900,399.384,30.488,45.058,45.000,0.00,0.11,-272.58,-272.64,-14,563,2,16.6,8.5,-17.0,16.8,8.8,-16.5,5.73,2.62,-11.1,23.3
2013-10-29 00:59:00,0.0,1.91447,0.00066,398.306,0.029,0.2190,0.0015,140.007,45.000,31409.10908,1.91866,399.363,30.495,45.058,45.000,0.00,0.11,-272.58,-272.64,-13,563,2,16.7,8.6,-16.9,16.8,8.9,-16.4,5.73,2.48,-11.1,23.3
2013-10-29 01:00:00,0.0,1.91306,0.00054,398.318,0.026,0.2193,0.0019,140.001,45.000,31407.06963,1.91723,399.375,30.499,45.058,45.000,0.00,0.11,-272.58,-272.64,-14,563,2,16.7,8.6,-16.9,16.8,8.9,-16.4,5.73,2.59,-11.1,23.3
2013-10-29 01:01:00,0.0,1.91280,0.00062,398.276,0.037,0.2190,0.0029,140.001,45.000,31406.79191,1.91698,399.335,30.465,45.058,45.000,0.00,0.30,-271.22,-271.95,-14,563,2,16.6,8.6,-16.9,16.8,8.9,-16.4,5.42,2.64,-13.6,23.3
2013-10-29 01:02:00,0.0,1.91244,0.00059,398.309,0.027,0.2184,0.0017,139.999,45.000,31406.16838,1.91663,399.356,30.443,45.058,45.000,0.00,0.11,-272.58,-272.64,-14,563,2,16.6,8.6,-17.0,16.8,8.9,-16.4,5.73,2.49,-11.1,23.3
2013-10-29 01:03:00,0.0,1.91199,0.00030,398.289,0.021,0.2191,0.0023,139.997,45.000,31404.17429,1.91629,399.345,30.438,45.058,45.000,0.00,0.11,-272.58,-272.64,-14,563,2,16.6,8.6,-16.9,16.8,8.9,-16.4,5.73,2.63,-11.0,23.3
2013-10-29 01:04:00,0.0,1.91209,0.00045,398.256,0.013,0.2187,0.0014,140.005,45.000,31406.56464,1.91614,399.311,30.440,45.059,45.000,0.00,0.11,-272.58,-272.64,-14,563,2,16.6,8.6,-17.0,16.8,8.9,-16.5,5.73,2.51,-11.1,23.3
2013-10-29 01:05:00,0.0,1.91224,0.00040,398.255,0.023,0.2176,0.0008,139.999,45.000,31404.36982,1.91629,399.302,30.438,45.059,45.000,0.00,0.11,-272.58,-272.64,-14,563,2,16.6,8.6,-17.0,16.7,8.9,-16.4,5.73,2.55,-11.1,23.3
2013-10-29 01:06:00,0.0,1.91215,0.00033,398.205,0.041,0.2201,0.0021,140.003,45.000,31407.45552,1.91641,399.268,30.434,45.059,45.000,0.00,0.11,-272.58,-272.64,-14,563,2,16.6,8.6,-17.0,16.8,8.9,-16.4,5.73,2.61,-11.0,23.3
2013-10-29 01:07:00,0.0,1.91214,0.00026,398.272,0.036,0.2190,0.0016,139.997,45.000,31405.23799,1.91626,399.323,30.437,45.059,45.000,0.00,0.11,-272.58,-272.64,-14,563,2,16.6,8.6,-17.0,16.7,8.9,-16.4,5.73,2.48,-11.1,23.3
2013-10-29 01:08:00,0.0,1.91228,0.00032,398.281,0.010,0.2190,0.0021,139.997,45.000,31403.67594,1.91645,399.333,30.438,45.059,45.000,0.00,0.30,-271.23,-271.95,-14,563,2,16.6,8.6,-17.0,16.7,8.9,-16.4,5.42,2.65,-13.6,23.3
2013-10-29 01:09:00,0.0,1.91257,0.00046,398.308,0.010,0.2208,0.0023,140.005,45.000,31402.87695,1.91668,399.368,30.438,45.059,45.000,0.00,0.11,-272.58,-272.64,-14,562,2,16.6,8.6,-17.0,16.7,8.9,-16.4,5.73,2.53,-11.0,23.3
2013-10-29 01:10:00,0.0,1.91273,0.00026,398.290,0.016,0.2215,0.0020,139.997,45.000,31402.37616,1.91686,399.357,30.438,45.059,45.000,0.00,0.11,-272.58,-272.65,-14,563,2,16.6,8.6,-16.9,16.7,9.0,-16.4,5.73,2.52,-11.1,23.3
2013-10-29 01:11:00,0.0,1.91273,0.00014,398.283,0.018,0.2222,0.0014,140.000,45.000,31403.53339,1.91697,399.357,30.438,45.059,45.000,0.00,0.11,-272.58,-272.64,-14,563,2,16.5,8.7,-16.9,16.7,9.0,-16.3,5.73,2.62,-11.1,23.3
2013-10-29 01:12:00,0.0,1.91299,0.00043,398.256,0.018,0.2224,0.0022,139.999,45.000,31403.24897,1.91705,399.327,30.436,45.059,45.000,0.00,0.11,-272.58,-272.64,-13,562,2,16.6,8.7,-16.8,16.7,9.0,-16.3,5.73,2.48,-11.1,23.3
2013-10-29 01:13:00,0.0,1.91382,0.00037,398.234,0.036,0.2237,0.0016,139.999,45.000,31403.53788,1.91803,399.309,30.438,45.059,45.000,0.00,0.11,-272.58,-272.64,-14,563,2,16.6,8.8,-16.7,16.7,9.1,-16.2,5.73,2.59,-11.1,23.3
2013-10-29 01:14:00,0.0,1.91408,0.00081,398.232,0.016,0.2241,0.0016,140.001,45.000,31401.87499,1.91816,399.317,30.438,45.059,45.000,0.00,0.11,-272.59,-272.64,-14,563,2,16.6,8.8,-16.7,16.7,9.1,-16.2,5.73,2.57,-11.1,23.3
2013-10-29 01:15:00,0.0,1.91472,0.00028,398.239,0.009,0.2245,0.0014,139.996,45.000,31402.24619,1.91903,399.319,30.431,45.059,45.000,0.00,0.11,-272.58,-272.64,-13,562,2,16.6,8.8,-16.7,16.7,9.1,-16.1,5.73,2.49,-11.1,23.3
2013-10-29 01:16:00,0.0,1.91390,0.00047,398.215,0.030,0.2252,0.0028,139.997,45.000,31402.06073,1.91827,399.300,30.432,45.059,45.000,0.00,0.11,-272.58,-272.64,-14,562,2,16.6,8.9,-16.6,16.7,9.2,-16.1,5.73,2.63,-10.4,23.2
2013-10-29 01:17:00,0.0,1.91394,0.00044,398.218,0.012,0.2269,0.0026,140.000,45.000,31401.93176,1.91825,399.312,30.433,45.059,45.000,0.00,0.11,-272.58,-272.64,-14,563,3,16.6,8.9,-16.6,16.7,9.2,-16.0,5.73,2.51,-10.0,23.3
2013-10-29 01:18:00,0.0,1.91436,0.00049,398.172,0.023,0.2273,0.0024,139.994,45.000,31399.70734,1.91863,399.271,30.436,45.059,45.000,0.00,0.11,-272.58,-272.64,-13,562,2,16.6,8.9,-16.5,16.8,9.2,-16.0,5.73,2.55,-10.1,23.3
2013-10-29 01:19:00,0.0,1.91420,0.00028,398.204,0.036,0.2275,0.0013,140.004,45.000,31404.77651,1.91853,399.296,30.437,45.059,45.000,0.00,0.11,-272.57,-272.64,-14,563,2,16.6,8.9,-16.5,16.7,9.2,-16.0,5.73,2.60,-10.2,23.3
2013-10-29 01:20:00,0.0,1.91394,0.00044,398.202,0.024,0.2291,0.0014,140.003,45.000,31405.93362,1.91824,399.303,30.434,45.059,45.000,0.00,0.11,-272.58,-272.64,-14,563,2,16.6,9.0,-16.5,16.8,9.3,-15.9,5.73,2.49,-10.3,23.3
2013-10-29 01:21:00,0.0,1.91325,0.00044,398.151,0.019,0.2296,0.0011,139.998,45.000,31406.05638,1.91769,399.261,30.438,45.059,45.000,0.00,0.11,-272.58,-272.64,-13,562,3,16.6,9.0,-16.4,16.8,9.3,-15.9,5.73,2.62,-10.3,23.3
2013-10-29 01:22:00,0.0,1.91330,0.00031,398.190,0.029,0.2281,0.0016,139.999,45.000,31405.56863,1.91768,399.288,30.438,45.059,45.000,0.00,0.11,-272.58,-272.64,-14,563,2,16.6,9.0,-16.4,16.8,9.3,-15.9,5.73,2.54,-10.4,23.3
2013-10-29 01:23:00,0.0,1.91365,0.00024,398.206,0.024,0.2289,0.0015,140.004,45.000,31405.31173,1.91786,399.305,30.438,45.059,45.000,0.00,0.11,-272.58,-272.64,-14,563,3,16.6,9.0,-16.5,16.8,9.3,-15.9,5.73,2.52,-10.4,23.3
2013-10-29 01:24:00,0.0,1.91328,0.00033,398.185,0.022,0.2296,0.0027,140.004,45.000,31405.63115,1.91773,399.293,30.436,45.059,45.000,0.00,0.11,-272.58,-272.65,-13,563,2,16.6,9.0,-16.4,16.8,9.3,-15.9,5.73,2.62,-10.5,23.3
2013-10-29 01:25:00,0.0,1.91319,0.00073,398.152,0.022,0.2299,0.0029,139.998,45.000,31404.42073,1.91756,399.265,30.438,45.058,45.000,0.00,0.11,-272.58,-272.64,-14,563,2,16.6,9.0,-16.5,16.8,9.3,-15.9,5.73,2.48,-10.5,23.3
2013-10-29 01:26:00,0.0,1.91451,0.00075,398.164,0.029,0.2303,0.0014,140.002,45.000,31405.16887,1.91866,399.267,30.438,45.059,45.000,0.00,0.11,-272.58,-272.64,-14,563,3,16.6,9.0,-16.4,16.8,9.3,-15.9,5.73,2.60,-10.5,23.3
2013-10-29 01:27:00,0.0,1.91388,0.00073,398.089,0.027,0.2312,0.0016,140.004,45.000,31405.43533,1.91842,399.207,30.433,45.058,45.000,0.00,0.11,-272.58,-272.65,-13,563,2,16.6,9.0,-16.4,16.8,9.3,-15.9,5.73,2.56,-10.6,23.3
2013-10-29 01:28:00,0.0,1.91395,0.00068,398.097,0.030,0.2289,0.0011,139.991,45.000,31400.83387,1.91834,399.201,30.430,45.059,45.000,0.00,0.11,-272.58,-272.64,-14,563,2,16.6,9.0,-16.5,16.7,9.3,-15.9,5.73,2.50,-10.6,23.3
2013-10-29 01:29:00,0.0,1.91318,0.00043,398.110,0.026,0.2293,0.0020,140.004,45.000,31402.57495,1.91751,399.217,30.435,45.059,45.000,0.00,0.11,-272.58,-272.64,-14,563,2,16.6,9.0,-16.5,16.8,9.3,-15.9,5.73,2.63,-10.6,23.3
2013-10-29 01:30:00,0.0,1.91383,0.00074,398.104,0.033,0.2299,0.0017,140.004,45.000,31403.00541,1.91816,399.210,30.428,45.059,45.000,0.00,0.11,-272.58,-272.64,-13,563,2,16.6,9.0,-16.5,16.7,9.3,-15.9,5.73,2.50,-10.7,23.3
2013-10-29 01:31:00,0.0,1.91263,0.00055,398.042,0.037,0.2297,0.0006,139.997,45.000,31401.88069,1.91716,399.153,30.438,45.059,45.000,0.00,0.11,-272.58,-272.64,-14,563,2,16.6,9.0,-16.5,16.7,9.3,-15.9,5.73,2.57,-10.7,23.3
2013-10-29 01:32:00,0.0,1.91261,0.00049,398.059,0.033,0.2274,0.0019,140.002,45.000,31399.70120,1.91679,399.150,30.438,45.059,45.000,0.00,0.11,-272.58,-272.64,-14,563,2,16.6,8.9,-16.6,16.7,9.2,-16.0,5.73,2.59,-10.7,23.3
2013-10-29 01:33:00,0.0,1.91319,0.00086,398.097,0.045,0.2272,0.0015,140.005,45.000,31400.95063,1.91764,399.194,30.438,45.059,45.000,0.00,0.11,-272.58,-272.64,-14,562,2,16.6,8.9,-16.6,16.7,9.2,-16.1,5.73,2.48,-10.7,23.3
2013-10-29 01:34:00,0.0,1.91214,0.00057,398.081,0.018,0.2259,0.0015,140.000,45.000,31399.08223,1.91644,399.166,30.438,45.059,45.000,0.00,0.11,-272.58,-272.64,-14,563,2,16.6,8.8,-16.7,16.7,9.2,-16.1,5.73,2.63,-10.7,23.3
2013-10-29 01:35:00,0.0,1.91270,0.00071,398.094,0.009,0.2254,0.0016,140.004,45.000,31402.05694,1.91673,399.179,30.438,45.059,45.000,0.00,0.11,-272.58,-272.64,-14,563,3,16.6,8.8,-16.7,16.7,9.1,-16.2,5.73,2.51,-10.8,23.3
2013-10-29 01:36:00,0.0,1.91175,0.00065,398.097,0.016,0.2249,0.0017,140.001,45.000,31402.61216,1.91615,399.177,30.448,45.059,45.000,0.00,0.11,-272.58,-272.64,-14,562,2,16.6,8.8,-16.6,16.7,9.1,-16.1,5.73,2.54,-10.8,23.3
2013-10-29 01:37:00,0.0,1.91157,0.00065,398.058,0.027,0.2240,0.0020,140.000,45.000,31402.08672,1.91590,399.144,30.469,45.059,45.000,0.00,0.11,-272.58,-272.65,-14,563,2,16.6,8.8,-16.7,16.8,9.1,-16.2,5.73,2.61,-10.8,23.3
2013-10-29 01:38:00,0.0,1.91194,0.00050,398.035,0.027,0.2224,0.0012,140.003,45.000,31402.55352,1.91616,399.104,30.455,45.059,45.000,0.00,0.11,-272.59,-272.64,-14,563,2,16.6,8.7,-16.7,16.8,9.0,-16.2,5.73,2.48,-10.8,23.3
2013-10-29 01:39:00,0.0,1.91235,0.00080,398.043,0.024,0.2219,0.0020,140.000,45.000,31401.35916,1.91632,399.107,30.453,45.058,45.000,0.00,0.11,-272.58,-272.64,-14,563,2,16.7,8.7,-16.7,16.8,9.0,-16.2,5.73,2.61,-10.8,23.3
2013-10-29 01:40:00,0.0,1.91233,0.00067,398.017,0.035,0.2245,0.0012,140.003,45.000,31403.96109,1.91682,399.107,30.438,45.058,45.000,0.00,0.11,-272.58,-272.64,-14,563,2,16.7,8.8,-16.6,16.8,9.1,-16.2,5.73,2.53,-10.8,23.3
2013-10-29 01:41:00,0.0,1.91188,0.00072,398.015,0.025,0.2257,0.0011,139.991,45.000,31400.16947,1.91618,399.096,30.449,45.058,45.000,0.00,0.11,-272.58,-272.64,-14,563,2,16.7,8.8,-16.7,16.8,9.1,-16.2,5.73,2.52,-10.8,23.3
2013-10-29 01:42:00,0.0,1.91188,0.00045,398.018,0.032,0.2223,0.0007,139.999,45.000,31401.21447,1.91602,399.092,30.440,45.059,45.000,0.00,0.11,-272.58,-272.64,-14,563,2,16.6,8.7,-16.7,16.8,9.0,-16.2,5.73,2.62,-10.8,23.3
2013-10-29 01:43:00,0.0,1.91186,0.00120,397.956,0.019,0.2226,0.0023,139.996,45.000,31399.94211,1.91619,399.031,30.444,45.059,45.000,0.00,0.11,-272.58,-272.64,-14,563,2,16.6,8.7,-16.8,16.8,9.0,-16.2,5.73,2.48,-10.8,23.3
2013-10-29 01:44:00,0.0,1.91105,0.00053,397.941,0.010,0.2228,0.0022,140.008,45.000,31404.44755,1.91521,399.013,30.438,45.059,45.000,0.00,0.11,-272.58,-272.64,-14,563,2,16.6,8.7,-16.8,16.8,9.0,-16.3,5.73,2.59,-10.8,23.3
2013-10-29 01:45:00,0.0,1.91127,0.00086,397.959,0.018,0.2212,0.0011,140.002,45.000,31404.85548,1.91551,399.023,30.438,45.059,45.000,0.00,0.11,-272.58,-272.64,-14,563,2,16.6,8.6,-16.9,16.8,9.0,-16.3,5.73,2.56,-10.9,23.4
2013-10-29 01:46:00,0.0,1.91159,0.00072,397.987,0.031,0.2212,0.0013,140.004,45.000,31404.48919,1.91581,399.050,30.438,45.059,45.000,0.00,0.11,-272.58,-272.64,-14,563,2,16.6,8.6,-16.9,16.8,9.0,-16.3,5.73,2.50,-10.8,23.4